Hereford, TX

9:40 PM CST on January 20, 2017 (GMT -0600)
Hereford Municipal

Weather History for KHRX - August, 2013

Change the Weather History Date:

Wednesday, August 7, 2013

  Actual Average (KAMA) Record (KAMA)
Temperature  
Mean Temperature 78 °F -  
Max Temperature 96 °F 88 °F 105 °F (2003)
Min Temperature 62 °F 63 °F 56 °F (1990)
Cooling Degree Days 14    
Growing Degree Days 28 (Base 50)    
Moisture  
Dew Point 57 °F    
Average Humidity 52    
Maximum Humidity 88    
Minimum Humidity 21    
Precipitation  
Precipitation 0.00 in - - ()
Sea Level Pressure  
Sea Level Pressure 29.99 in    
Wind  
Wind Speed 8 mph (ENE)    
Max Wind Speed 29 mph    
Max Gust Speed 45 mph    
Visibility 10 miles    
Events Rain    
Averages and records for this station are not official NWS values.
T = Trace of Precipitation, MM = Missing Value Source: NWS Daily Summary

Daily Weather History Graph

Daily Weather History Graph

Search for Another Location

Airport or City:

Trip Planner

Search our weather history database for the weather conditions in past years. The results will help you decide how hot, cold, wet, or windy it might be!

Date:

Astronomy

Aug. 07, 2013 Rise Set
Actual Time 7:03 AM CDT 8:45 PM CDT
Civil Twilight 6:36 AM CDT 9:13 PM CDT
Nautical Twilight 6:03 AM CDT 9:45 PM CDT
Astronomical Twilight 5:28 AM CDT 10:20 PM CDT
Moon 7:49 AM CDT (8/7) 8:59 PM CDT (8/7)
Length of Visible Light 14h 36m
Length of Day
13h 42m
New Moon, 1% of the Moon is Illuminated
Aug 7
New Moon
Aug 14
First Quarter
Aug 20
Full
Aug 28
Last Quarter
Sep 5
New

Hourly Weather History & Observations

Time (CDT) Temp. Heat Index Dew Point Humidity Pressure Visibility Wind Dir Wind Speed Gust Speed Precip Events Conditions
12:15 AM 75.7 °F - 61.2 °F 60% 29.96 in 10.0 mi NE 16.1 mph 23.0 mph N/A   Clear
12:35 AM 75.4 °F - 61.2 °F 61% 29.98 in 10.0 mi NE 11.5 mph 19.6 mph N/A   Scattered Clouds
12:55 AM 75.0 °F - 61.7 °F 63% 29.99 in 10.0 mi East 9.2 mph 18.4 mph N/A   Scattered Clouds
1:15 AM 73.9 °F - 61.9 °F 66% 30.02 in 10.0 mi ENE 3.5 mph - N/A   Scattered Clouds
1:35 AM 71.6 °F - 61.7 °F 71% 30.00 in 10.0 mi ENE 4.6 mph - N/A   Clear
1:55 AM 69.4 °F - 61.3 °F 75% 30.00 in 10.0 mi NE 6.9 mph - N/A   Clear
2:15 AM 70.0 °F - 61.2 °F 73% 29.99 in 10.0 mi NE 6.9 mph - N/A   Clear
2:35 AM 70.7 °F - 60.6 °F 70% 29.99 in 10.0 mi NE 8.1 mph - N/A   Clear
2:55 AM 70.3 °F - 60.3 °F 70% 29.98 in 10.0 mi ENE 10.4 mph - N/A   Clear
3:15 AM 70.7 °F - 59.9 °F 69% 29.98 in 10.0 mi ENE 10.4 mph - N/A   Clear
3:35 AM 69.8 °F - 59.9 °F 71% 29.99 in 10.0 mi NE 5.8 mph - N/A   Clear
3:55 AM 68.0 °F - 60.1 °F 76% 29.99 in 10.0 mi NNE 4.6 mph - N/A   Clear
4:15 AM 67.3 °F - 59.9 °F 77% 30.00 in 10.0 mi NNE 4.6 mph - N/A   Clear
4:35 AM 66.2 °F - 60.1 °F 81% 30.01 in 10.0 mi NE 3.5 mph - N/A   Clear
4:55 AM 66.2 °F - 59.9 °F 80% 30.01 in 10.0 mi ENE 3.5 mph - N/A   Clear
5:15 AM 66.4 °F - 60.1 °F 80% 30.00 in 10.0 mi East 4.6 mph - N/A   Clear
5:35 AM 66.0 °F - 59.9 °F 81% 30.00 in 10.0 mi East 4.6 mph - N/A   Clear
5:55 AM 65.1 °F - 59.7 °F 83% 30.00 in 10.0 mi SE 3.5 mph - N/A   Clear
6:15 AM 65.3 °F - 59.9 °F 83% 30.00 in 10.0 mi Calm Calm - N/A   Clear
6:35 AM 65.7 °F - 59.5 °F 81% 30.00 in 10.0 mi NNW 3.5 mph - N/A   Clear
6:55 AM 64.6 °F - 59.9 °F 85% 30.00 in 10.0 mi Calm Calm - N/A   Clear
7:15 AM 63.7 °F - 59.4 °F 86% 30.00 in 10.0 mi Calm Calm - N/A   Clear
7:35 AM 62.8 °F - 59.2 °F 88% 30.00 in 10.0 mi NNE 5.8 mph - N/A   Clear
7:55 AM 64.9 °F - 60.4 °F 85% 30.01 in 10.0 mi North 6.9 mph - N/A   Clear
8:15 AM 66.6 °F - 60.4 °F 81% 30.02 in 10.0 mi North 5.8 mph - N/A   Clear
8:35 AM 69.4 °F - 60.8 °F 74% 30.03 in 10.0 mi NNE 6.9 mph - N/A   Clear
8:55 AM 72.3 °F - 61.2 °F 68% 30.03 in 10.0 mi North 10.4 mph - N/A   Clear
9:15 AM 74.3 °F - 61.5 °F 64% 30.03 in 10.0 mi North 4.6 mph - N/A   Clear
9:35 AM 75.7 °F - 60.8 °F 60% 30.03 in 10.0 mi North 3.5 mph - N/A   Clear
9:55 AM 77.5 °F - 60.8 °F 56% 30.04 in 10.0 mi NNW 4.6 mph - N/A   Clear
10:15 AM 79.0 °F - 60.3 °F 53% 30.04 in 10.0 mi NW 4.6 mph - N/A   Clear
10:35 AM 80.8 °F 81.4 °F 60.1 °F 49% 30.03 in 10.0 mi NW 4.6 mph - N/A   Clear
10:55 AM 82.2 °F 82.1 °F 58.3 °F 44% 30.04 in 10.0 mi NNW 3.5 mph - N/A   Clear
11:15 AM 82.9 °F 82.7 °F 58.1 °F 43% 30.04 in 10.0 mi Calm Calm - N/A   Clear
11:35 AM 85.1 °F 84.4 °F 58.5 °F 40% 30.05 in 10.0 mi NNE 4.6 mph - N/A   Clear
11:55 AM 85.6 °F 84.5 °F 56.3 °F 37% 30.05 in 10.0 mi East 3.5 mph - N/A   Clear
12:15 PM 86.9 °F 85.6 °F 56.7 °F 36% 30.04 in 10.0 mi North 4.6 mph - N/A   Clear
12:35 PM 88.7 °F 87.3 °F 56.8 °F 34% 30.04 in 10.0 mi NNE 9.2 mph - N/A   Clear
12:55 PM 90.3 °F 88.8 °F 57.0 °F 32% 30.03 in 10.0 mi NE 3.5 mph - N/A   Clear
1:15 PM 90.0 °F 88.6 °F 57.4 °F 33% 30.02 in 10.0 mi ENE 6.9 mph - N/A   Clear
1:35 PM 89.8 °F 88.4 °F 56.8 °F 33% 30.02 in 10.0 mi East 5.8 mph - N/A   Clear
1:55 PM 89.8 °F 88.1 °F 56.3 °F 32% 30.01 in 10.0 mi ENE 3.5 mph - N/A   Scattered Clouds
2:15 PM 90.3 °F 88.5 °F 56.1 °F 31% 30.01 in 10.0 mi Calm Calm - N/A   Scattered Clouds
2:35 PM 91.4 °F 89.9 °F 56.7 °F 31% 30.00 in 10.0 mi ESE 8.1 mph - N/A   Scattered Clouds
2:55 PM 91.4 °F 89.4 °F 55.4 °F 29% 30.00 in 10.0 mi ESE 9.2 mph - N/A   Clear
3:15 PM 90.7 °F 88.5 °F 54.3 °F 29% 30.00 in 10.0 mi ESE 8.1 mph - N/A   Clear
3:35 PM 92.8 °F 90.9 °F 54.9 °F 28% 29.99 in 10.0 mi ESE 9.2 mph - N/A   Clear
3:55 PM 94.1 °F - 51.4 °F 23% 29.98 in 10.0 mi South 3.5 mph - N/A   Clear
4:15 PM 94.3 °F - 50.5 °F 23% 29.96 in 10.0 mi ESE 4.6 mph - N/A   Clear
4:35 PM 94.8 °F - 50.9 °F 22% 29.95 in 10.0 mi SSE 6.9 mph 20.7 mph N/A   Clear
4:55 PM 94.8 °F 92.8 °F 54.7 °F 26% 29.94 in 10.0 mi ENE 13.8 mph 18.4 mph N/A   Scattered Clouds
5:15 PM 95.4 °F - 50.4 °F 22% 29.93 in 10.0 mi SSE 4.6 mph - N/A   Scattered Clouds
5:35 PM 95.0 °F - 49.6 °F 21% 29.92 in 10.0 mi SSE 11.5 mph 20.7 mph N/A   Scattered Clouds
5:55 PM 92.5 °F - 52.2 °F 25% 29.92 in 10.0 mi ESE 17.3 mph 21.9 mph N/A   Scattered Clouds
6:15 PM 92.1 °F 90.2 °F 55.2 °F 29% 29.92 in 10.0 mi ESE 13.8 mph 19.6 mph N/A   Scattered Clouds
6:35 PM 93.2 °F 91.0 °F 54.1 °F 27% 29.92 in 10.0 mi SE 18.4 mph 27.6 mph N/A   Clear
6:55 PM 91.4 °F - 50.0 °F 24% 29.92 in 10.0 mi SSE 17.3 mph 28.8 mph N/A   Clear
7:15 PM 92.3 °F - 50.4 °F 24% 29.92 in 10.0 mi SSE 13.8 mph 17.3 mph N/A   Clear
7:35 PM 88.0 °F 85.7 °F 53.1 °F 30% 29.95 in 5.0 mi SSW 28.8 mph 44.9 mph N/A   Haze
7:55 PM 79.7 °F - 54.9 °F 42% 29.95 in 7.0 mi South 26.5 mph 33.4 mph N/A   Scattered Clouds
8:15 PM 80.2 °F 80.2 °F 54.5 °F 41% 29.95 in 7.0 mi SSW 28.8 mph 39.1 mph N/A   Clear
8:35 PM 80.8 °F - 52.3 °F 37% 29.96 in 7.0 mi SSW 17.3 mph 35.7 mph N/A   Clear
8:55 PM 80.1 °F - 52.7 °F 39% 29.98 in 10.0 mi SSW 23.0 mph 29.9 mph N/A   Scattered Clouds
9:15 PM 78.8 °F - 53.6 °F 42% 29.99 in 10.0 mi SSW 12.7 mph 20.7 mph N/A   Mostly Cloudy
9:35 PM 77.9 °F - 54.0 °F 43% 29.99 in 10.0 mi SSW 9.2 mph 17.3 mph N/A   Mostly Cloudy
9:55 PM 77.7 °F - 53.8 °F 43% 29.98 in 10.0 mi South 6.9 mph - N/A   Clear
10:15 PM 76.3 °F - 54.1 °F 46% 29.98 in 7.0 mi Calm Calm - N/A   Clear
10:35 PM 73.6 °F - 55.8 °F 54% 29.98 in 10.0 mi ESE 5.8 mph - N/A   Clear
10:55 PM 75.2 °F - 55.0 °F 49% 30.00 in 10.0 mi East 10.4 mph - N/A   Scattered Clouds
11:15 PM 73.8 °F - 58.3 °F 58% 30.02 in 10.0 mi NE 6.9 mph - N/A Rain Light Rain
11:35 PM 71.1 °F - 60.6 °F 69% 29.99 in 10.0 mi East 9.2 mph - N/A Rain Light Rain
11:55 PM 72.3 °F - 59.7 °F 64% 29.99 in 10.0 mi ENE 5.8 mph - N/A   Scattered Clouds